Location: Arleux
(50.3632°N, 2.8721°E)
Time: 15:05:54
(UTC+00:00)

S3M - Pass Details

Date: 15 December 2019
Orbit: 948 x 1005 km, 83.0° (Epoch: 28 January)

Event Time Altitude Azimuth Distance (km) Brightness Sun altitude
Rises 06:56:46 0° 180° (S) 3,716 7.5 -6.9°
Reaches altitude 10° 06:59:18 10° 178° (S) 2,767 6.8 -6.5°
Maximum altitude 07:05:37 73° 96° (E) 1,044 4.4 -5.6°
Drops below altitude 10° 07:11:56 10° 13° (NNE) 2,755 6.2 -4.8°
Sets 07:14:27 0° 12° (NNE) 3,700 6.8 -4.4°
